Location: Unspecified
(33.9239°N, 118.0544°W)
Time: 22:19:32
(UTC-07:00)

Resurs 1-4 Rocket - Visible Passes

Search period start: 23 April 2017 00:00
Search period end: 03 May 2017 00:00
Orbit: 799 x 815 km, 98.5° (Epoch: 22 April)

Date Brightness Start Highest point End Pass type
(mag) Time Alt. Az. Time Alt. Az. Time Alt. Az.
23 Apr 3.1 03:00:13 10° NNE 03:03:55 43° NE 03:03:55 43° NE visible
23 Apr 3.9 04:42:02 10° NNW 04:44:41 14° WNW 04:45:00 14° WNW visible
24 Apr 3.8 02:36:02 10° NNE 02:39:09 28° ENE 02:39:09 28° ENE visible
24 Apr 3.4 04:16:15 10° NNW 04:20:14 24° WNW 04:20:14 24° WNW visible
25 Apr 4.4 02:12:20 10° NE 02:14:22 17° ENE 02:14:22 17° ENE visible
25 Apr 2.8 03:51:07 10° N 03:55:27 40° NW 03:55:27 40° NW visible
26 Apr 2.4 03:26:19 10° N 03:30:41 59° NNW 03:30:41 59° NNW visible
27 Apr 2.8 03:01:48 10° NNE 03:05:55 51° NE 03:05:55 51° NE visible
27 Apr 3.9 04:43:46 10° NW 04:46:16 14° WNW 04:47:01 13° WNW visible
28 Apr 3.6 02:37:35 10° NNE 02:41:09 32° ENE 02:41:09 32° ENE visible
28 Apr 3.4 04:17:55 10° NNW 04:21:59 23° WNW 04:22:14 23° WNW visible
29 Apr 4.3 02:13:50 10° NE 02:16:22 19° ENE 02:16:22 19° ENE visible
29 Apr 2.7 03:52:45 10° N 03:57:27 39° WNW 03:57:27 39° WNW visible
30 Apr 4.8 01:51:28 10° ENE 01:51:36 10° ENE 01:51:36 10° ENE visible
30 Apr 2.2 03:27:56 10° N 03:32:41 65° NW 03:32:41 65° NW visible
01 May 2.5 03:03:23 10° NNE 03:07:54 59° ENE 03:07:54 59° ENE visible
01 May 4.0 04:45:31 10° NW 04:47:51 13° WNW 04:49:00 12° WNW visible
02 May 3.4 02:39:09 10° NNE 02:43:08 35° ENE 02:43:08 35° ENE visible
02 May 3.4 04:19:35 10° NNW 04:23:35 22° WNW 04:24:13 22° WNW visible
